Mombasa, Kenya

12:46 PM EAT on June 27, 2017 (GMT +0300)
Mombasa

Weather History for HKMO - August, 2012

Change the Weather History Date:

Tuesday, August 28, 2012

  Actual Average Record
Temperature  
Mean Temperature 76 °F -  
Max Temperature 83 °F 85 °F 84 °F (1998)
Min Temperature 70 °F 67 °F 68 °F (1999)
Cooling Degree Days 12    
Growing Degree Days 26 (Base 50)    
Moisture  
Dew Point 69 °F    
Average Humidity 77    
Maximum Humidity 94    
Minimum Humidity 49    
Precipitation  
Precipitation 0.00 in 0.09 in - ()
Sea Level Pressure  
Sea Level Pressure 30.02 in    
Wind  
Wind Speed 6 mph ()    
Max Wind Speed 13 mph    
Max Gust Speed -    
Visibility 8.2 miles    
Events      
Averages and records for this station are not official NWS values.
T = Trace of Precipitation, MM = Missing Value Source: Averaged Metar Reports

Daily Weather History Graph

Daily Weather History Graph

Search for Another Location

Airport or City:

Trip Planner

Search our weather history database for the weather conditions in past years. The results will help you decide how hot, cold, wet, or windy it might be!

Date:

Astronomy

Aug. 28, 2012 Rise Set
Actual Time 6:22 AM EAT 6:23 PM EAT
Civil Twilight 6:01 AM EAT 6:44 PM EAT
Nautical Twilight 5:36 AM EAT 7:08 PM EAT
Astronomical Twilight 5:12 AM EAT 7:32 PM EAT
Moon 3:42 PM EAT (8/28) 3:23 AM EAT (8/28)
Length of Visible Light 12h 43m
Length of Day
12h 01m
Waxing Gibbous, 88% of the Moon is Illuminated
Aug 28
Waxing Gibbous
Aug 31
Full
Sep 8
Last Quarter
Sep 16
New
Sep 22
First Quarter

Hourly Weather History & Observations

Time (EAT) Temp. Heat Index Dew Point Humidity Pressure Visibility Wind Dir Wind Speed Gust Speed Precip Events Conditions
12:00 AM 77.0 °F - 69.8 °F 78% 30.04 in 6.2 mi South 8.1 mph - N/A   Scattered Clouds
1:00 AM 75.2 °F - 69.8 °F 83% 30.04 in 6.2 mi SW 4.6 mph - N/A   Partly Cloudy
2:00 AM 73.4 °F - 69.8 °F 88% 30.01 in 6.2 mi SW 4.6 mph - N/A   Partly Cloudy
3:00 AM 72 °F - 70 °F 90% 30.01 in 19 mi WSW 4.6 mph - -   Scattered Clouds
3:00 AM 73.4 °F - 69.8 °F 88% 30.01 in 6.2 mi WSW 4.6 mph - N/A   Partly Cloudy
4:00 AM 71.6 °F - 69.8 °F 94% 30.01 in 6.2 mi WSW 3.5 mph - N/A   Partly Cloudy
5:00 AM 71.6 °F - 69.8 °F 94% 30.01 in 6.2 mi SSW 9.2 mph - N/A   Partly Cloudy
6:00 AM 71.6 °F - 69.8 °F 94% 30.01 in 6.2 mi SSW 6.9 mph - N/A   Partly Cloudy
7:00 AM 71.6 °F - 69.8 °F 94% 30.04 in 6.2 mi SW 6.9 mph - N/A   Partly Cloudy
8:00 AM 73.4 °F - 69.8 °F 88% 30.06 in 6.2 mi SW 4.6 mph - N/A   Partly Cloudy
9:00 AM 77 °F - 70 °F 74% 30.07 in 19 mi SSW 10.4 mph - -   Scattered Clouds
9:00 AM 77.0 °F - 69.8 °F 78% 30.06 in 6.2 mi SSW 10.4 mph - N/A   Partly Cloudy
10:00 AM 80.6 °F 83.2 °F 68.0 °F 65% 30.06 in 6.2 mi South 12.7 mph - N/A   Partly Cloudy
11:00 AM 80.6 °F 82.7 °F 66.2 °F 61% 30.06 in 6.2 mi South 11.5 mph - N/A   Partly Cloudy
12:00 PM 82.4 °F 86.3 °F 69.8 °F 66% 30.04 in 6.2 mi South 9.2 mph - N/A   Partly Cloudy
1:00 PM 82.4 °F 84.6 °F 66.2 °F 58% 30.04 in 6.2 mi SSE 8.1 mph - N/A   Partly Cloudy
2:00 PM 84.2 °F 86.6 °F 66.2 °F 55% 30.01 in 6.2 mi South 8.1 mph - N/A   Partly Cloudy
3:00 PM 83 °F - 67 °F 49% 29.98 in 19 mi SSE 8.1 mph - -   Scattered Clouds
3:00 PM 82.4 °F 84.6 °F 66.2 °F 58% 29.98 in 6.2 mi SSE 8.1 mph - N/A   Partly Cloudy
5:00 PM 80.6 °F 83.2 °F 68.0 °F 65% 29.98 in 6.2 mi SSE 11.5 mph - N/A   Mostly Cloudy
6:00 PM 77.0 °F - 69.8 °F 78% 29.98 in 6.2 mi SSE 6.9 mph - N/A   Scattered Clouds
7:00 PM 75.2 °F - 71.6 °F 89% 29.98 in 6.2 mi South 6.9 mph - N/A   Partly Cloudy
8:00 PM 80.6 °F 83.2 °F 68.0 °F 65% 29.98 in 6.2 mi SE 10.4 mph - N/A   Partly Cloudy
9:00 PM 75 °F - 70 °F 80% 30.02 in 19 mi South 6.9 mph - -   Scattered Clouds
9:00 PM 75.2 °F - 69.8 °F 83% 30.01 in 6.2 mi South 6.9 mph - N/A   Partly Cloudy